Saint Bonnet de Bellac- Haute Vienne - France
Donnes mto: lundi, 26/03/2012
Date Horaire Temp. E. Hum. E. P.atmo. Pluie Vent Direction Direction Ensoleilleme Solaire P. de rose Temp au vent Rafales
26/03/2012 00:00 11,5 C 60 % 1026,0 hPa 0,0 mm 0,0 km/h (0 Bft) E-NE 67 0 min 0 W/m 4,0 C 11,5 C 0,0 km/h (0 Bft)
26/03/2012 00:10 11,1 C 60 % 1026,1 hPa 0,0 mm 0,0 km/h (0 Bft) E-NE 67 0 min 0 W/m 3,6 C 11,1 C 0,0 km/h (0 Bft)
26/03/2012 00:20 10,6 C 61 % 1026,1 hPa 0,0 mm 0,0 km/h (0 Bft) NE 45 0 min 0 W/m 3,4 C 10,6 C 0,0 km/h (0 Bft)
26/03/2012 00:30 10,2 C 63 % 1026,1 hPa 0,0 mm 0,0 km/h (0 Bft) NE 45 0 min 0 W/m 3,5 C 10,2 C 0,0 km/h (0 Bft)
26/03/2012 00:40 9,8 C 63 % 1026,1 hPa 0,0 mm 0,4 km/h (0 Bft) NE 45 0 min 0 W/m 3,1 C 9,8 C 2,9 km/h (1 Bft)
26/03/2012 00:50 9,7 C 63 % 1026,1 hPa 0,0 mm 0,0 km/h (0 Bft) E-NE 67 0 min 0 W/m 3,0 C 9,7 C 0,0 km/h (0 Bft)
26/03/2012 01:00 9,4 C 65 % 1026,2 hPa 0,0 mm 0,0 km/h (0 Bft) E-NE 67 0 min 0 W/m 3,2 C 9,4 C 0,0 km/h (0 Bft)
26/03/2012 01:10 9,0 C 65 % 1026,1 hPa 0,0 mm 0,0 km/h (0 Bft) E-NE 67 0 min 0 W/m 2,8 C 9,0 C 0,0 km/h (0 Bft)
26/03/2012 01:20 8,8 C 66 % 1026,1 hPa 0,0 mm 0,0 km/h (0 Bft) E-NE 67 0 min 0 W/m 2,8 C 8,8 C 0,0 km/h (0 Bft)
26/03/2012 01:30 8,6 C 67 % 1026,2 hPa 0,0 mm 0,0 km/h (0 Bft) E-NE 67 0 min 0 W/m 2,8 C 8,6 C 0,0 km/h (0 Bft)
26/03/2012 01:40 8,6 C 68 % 1026,1 hPa 0,0 mm 0,0 km/h (0 Bft) NE 45 0 min 0 W/m 3,0 C 8,6 C 0,0 km/h (0 Bft)
26/03/2012 01:50 8,6 C 68 % 1026,1 hPa 0,0 mm 0,0 km/h (0 Bft) NE 45 0 min 0 W/m 3,0 C 8,6 C 0,0 km/h (0 Bft)
26/03/2012 02:00 8,6 C 68 % 1026,1 hPa 0,0 mm 0,0 km/h (0 Bft) NE 45 0 min 0 W/m 3,0 C 8,6 C 0,0 km/h (0 Bft)
26/03/2012 02:10 8,4 C 68 % 1026,0 hPa 0,0 mm 0,0 km/h (0 Bft) N-NE 22 0 min 0 W/m 2,8 C 8,4 C 0,0 km/h (0 Bft)
26/03/2012 02:20 8,2 C 68 % 1026,1 hPa 0,0 mm 0,0 km/h (0 Bft) N-NE 22 0 min 0 W/m 2,7 C 8,2 C 0,0 km/h (0 Bft)
26/03/2012 02:30 7,9 C 69 % 1026,1 hPa 0,0 mm 0,0 km/h (0 Bft) N-NE 22 0 min 0 W/m 2,6 C 7,9 C 0,0 km/h (0 Bft)
26/03/2012 02:40 7,6 C 70 % 1026,0 hPa 0,0 mm 0,0 km/h (0 Bft) N-NE 22 0 min 0 W/m 2,5 C 7,6 C 0,0 km/h (0 Bft)
26/03/2012 02:50 7,4 C 71 % 1026,0 hPa 0,0 mm 0,0 km/h (0 Bft) N-NE 22 0 min 0 W/m 2,5 C 7,4 C 0,0 km/h (0 Bft)
26/03/2012 03:02 7,3 C 72 % 1025,9 hPa 0,0 mm 0,0 km/h (0 Bft) N-NE 22 0 min 0 W/m 2,6 C 7,3 C 0,0 km/h (0 Bft)
26/03/2012 03:10 7,1 C 72 % 1026,0 hPa 0,0 mm 0,0 km/h (0 Bft) E-SE 112 0 min 0 W/m 2,4 C 7,1 C 0,0 km/h (0 Bft)
26/03/2012 03:20 7,0 C 73 % 1026,0 hPa 0,0 mm 0,0 km/h (0 Bft) E-SE 112 0 min 0 W/m 2,5 C 7,0 C 0,0 km/h (0 Bft)
26/03/2012 03:30 6,9 C 73 % 1026,0 hPa 0,0 mm 0,0 km/h (0 Bft) E-SE 112 0 min 0 W/m 2,4 C 6,9 C 0,0 km/h (0 Bft)
26/03/2012 03:40 7,0 C 75 % 1026,0 hPa 0,0 mm 0,0 km/h (0 Bft) E-SE 112 0 min 0 W/m 2,9 C 7,0 C 0,0 km/h (0 Bft)
26/03/2012 03:50 7,1 C 75 % 1026,0 hPa 0,0 mm 0,0 km/h (0 Bft) SE 135 0 min 0 W/m 3,0 C 7,1 C 0,0 km/h (0 Bft)
26/03/2012 04:00 6,8 C 75 % 1025,9 hPa 0,0 mm 0,0 km/h (0 Bft) SE 135 0 min 0 W/m 2,7 C 6,8 C 0,0 km/h (0 Bft)
26/03/2012 04:10 6,6 C 75 % 1025,9 hPa 0,0 mm 0,0 km/h (0 Bft) SE 135 0 min 0 W/m 2,5 C 6,6 C 0,0 km/h (0 Bft)
26/03/2012 04:20 6,3 C 75 % 1026,0 hPa 0,0 mm 0,0 km/h (0 Bft) N 360 0 min 0 W/m 2,2 C 6,3 C 0,0 km/h (0 Bft)
26/03/2012 04:30 6,1 C 76 % 1025,9 hPa 0,0 mm 0,0 km/h (0 Bft) E 90 0 min 0 W/m 2,2 C 6,1 C 0,0 km/h (0 Bft)
26/03/2012 04:40 6,1 C 77 % 1025,9 hPa 0,0 mm 0,0 km/h (0 Bft) SE 135 0 min 0 W/m 2,4 C 6,1 C 0,0 km/h (0 Bft)
26/03/2012 04:50 6,0 C 77 % 1025,8 hPa 0,0 mm 0,0 km/h (0 Bft) SE 135 0 min 0 W/m 2,3 C 6,0 C 0,0 km/h (0 Bft)
26/03/2012 05:00 6,0 C 77 % 1025,8 hPa 0,0 mm 0,0 km/h (0 Bft) E-SE 112 0 min 0 W/m 2,3 C 6,0 C 0,0 km/h (0 Bft)
26/03/2012 05:10 5,9 C 77 % 1025,7 hPa 0,0 mm 0,0 km/h (0 Bft) SE 135 0 min 0 W/m 2,2 C 5,9 C 0,0 km/h (0 Bft)
26/03/2012 05:20 5,8 C 78 % 1025,7 hPa 0,0 mm 0,7 km/h (0 Bft) SE 135 0 min 0 W/m 2,3 C 5,8 C 3,2 km/h (1 Bft)
26/03/2012 05:30 5,9 C 78 % 1025,6 hPa 0,0 mm 0,0 km/h (0 Bft) E-SE 112 0 min 0 W/m 2,4 C 5,9 C 1,4 km/h (1 Bft)
26/03/2012 05:40 5,9 C 78 % 1025,6 hPa 0,0 mm 0,7 km/h (0 Bft) E 90 0 min 0 W/m 2,4 C 5,9 C 0,7 km/h (0 Bft)
26/03/2012 05:50 5,8 C 77 % 1025,6 hPa 0,0 mm 0,0 km/h (0 Bft) E 90 0 min 0 W/m 2,1 C 5,8 C 0,0 km/h (0 Bft)
26/03/2012 06:00 5,6 C 78 % 1025,6 hPa 0,0 mm 0,0 km/h (0 Bft) E 90 0 min 0 W/m 2,1 C 5,6 C 0,0 km/h (0 Bft)
26/03/2012 06:10 5,6 C 79 % 1025,5 hPa 0,0 mm 1,1 km/h (1 Bft) E-SE 112 0 min 0 W/m 2,3 C 5,6 C 4,0 km/h (1 Bft)
26/03/2012 06:20 5,6 C 79 % 1025,6 hPa 0,0 mm 0,7 km/h (0 Bft) SE 135 0 min 0 W/m 2,3 C 5,6 C 3,6 km/h (1 Bft)
26/03/2012 06:30 5,4 C 79 % 1025,6 hPa 0,0 mm 0,4 km/h (0 Bft) E-SE 112 0 min 0 W/m 2,1 C 5,4 C 3,2 km/h (1 Bft)
26/03/2012 06:40 5,2 C 79 % 1025,6 hPa 0,0 mm 0,0 km/h (0 Bft) E-SE 112 0 min 0 W/m 1,9 C 5,2 C 0,0 km/h (0 Bft)
26/03/2012 06:50 4,9 C 79 % 1025,7 hPa 0,0 mm 0,0 km/h (0 Bft) E 90 0 min 0 W/m 1,6 C 4,9 C 0,0 km/h (0 Bft)
26/03/2012 07:00 4,8 C 79 % 1025,8 hPa 0,0 mm 0,0 km/h (0 Bft) N 360 0 min 0 W/m 1,5 C 4,8 C 0,0 km/h (0 Bft)
26/03/2012 07:10 4,4 C 79 % 1025,7 hPa 0,0 mm 0,0 km/h (0 Bft) N 360 0 min 0 W/m 1,1 C 4,4 C 0,0 km/h (0 Bft)
26/03/2012 07:20 4,1 C 80 % 1025,8 hPa 0,0 mm 0,0 km/h (0 Bft) N 360 0 min 0 W/m 1,0 C 4,1 C 0,0 km/h (0 Bft)
26/03/2012 07:30 3,8 C 81 % 1025,8 hPa 0,0 mm 0,0 km/h (0 Bft) N 360 0 min 0 W/m 0,8 C 3,8 C 0,0 km/h (0 Bft)
26/03/2012 07:40 3,4 C 81 % 1025,8 hPa 0,0 mm 0,0 km/h (0 Bft) N 360 0 min 0 W/m 0,5 C 3,4 C 0,0 km/h (0 Bft)
26/03/2012 07:50 3,3 C 81 % 1025,8 hPa 0,0 mm 0,0 km/h (0 Bft) N 360 0 min 0 W/m 0,4 C 3,3 C 0,0 km/h (0 Bft)
26/03/2012 08:00 3,3 C 82 % 1025,9 hPa 0,0 mm 0,0 km/h (0 Bft) S 180 2 min 0 W/m 0,5 C 3,3 C 0,0 km/h (0 Bft)
26/03/2012 08:10 3,3 C 83 % 1025,9 hPa 0,0 mm 0,0 km/h (0 Bft) S 180 2 min 0 W/m 0,7 C 3,3 C 0,0 km/h (0 Bft)
26/03/2012 08:20 3,4 C 83 % 1025,9 hPa 0,0 mm 0,0 km/h (0 Bft) S 180 2 min 0 W/m 0,8 C 3,4 C 0,0 km/h (0 Bft)
26/03/2012 08:30 3,4 C 84 % 1025,9 hPa 0,0 mm 0,0 km/h (0 Bft) S 180 2 min 0 W/m 1,0 C 3,4 C 0,0 km/h (0 Bft)
26/03/2012 08:40 3,4 C 83 % 1026,2 hPa 0,0 mm 0,0 km/h (0 Bft) S 180 2 min 0 W/m 0,8 C 3,4 C 0,0 km/h (0 Bft)
26/03/2012 08:50 4,0 C 84 % 1026,3 hPa 0,0 mm 1,1 km/h (1 Bft) SE 135 2 min 0 W/m 1,5 C 4,0 C 3,6 km/h (1 Bft)
26/03/2012 09:00 5,1 C 84 % 1026,4 hPa 0,0 mm 1,1 km/h (1 Bft) SE 135 2 min 0 W/m 2,6 C 5,1 C 4,3 km/h (1 Bft)
26/03/2012 09:10 5,9 C 83 % 1026,5 hPa 0,0 mm 0,0 km/h (0 Bft) E-SE 112 2 min 0 W/m 3,2 C 5,9 C 0,0 km/h (0 Bft)
26/03/2012 09:20 6,8 C 82 % 1026,4 hPa 0,0 mm 0,7 km/h (0 Bft) E-NE 67 2 min 0 W/m 3,9 C 6,8 C 4,0 km/h (1 Bft)
26/03/2012 09:30 7,7 C 81 % 1026,5 hPa 0,0 mm 0,0 km/h (0 Bft) NE 45 2 min 0 W/m 4,7 C 7,7 C 0,0 km/h (0 Bft)
26/03/2012 09:40 8,3 C 78 % 1026,5 hPa 0,0 mm 0,0 km/h (0 Bft) NE 45 2 min 0 W/m 4,7 C 8,3 C 0,0 km/h (0 Bft)
26/03/2012 09:50 9,1 C 78 % 1026,5 hPa 0,0 mm 0,0 km/h (0 Bft) NE 45 2 min 0 W/m 5,5 C 9,1 C 0,0 km/h (0 Bft)
26/03/2012 10:00 10,1 C 75 % 1026,6 hPa 0,0 mm 0,0 km/h (0 Bft) NE 45 2 min 0 W/m 5,9 C 10,1 C 0,0 km/h (0 Bft)
26/03/2012 10:10 10,9 C 73 % 1026,6 hPa 0,0 mm 0,0 km/h (0 Bft) N-NE 22 2 min 0 W/m 6,3 C 10,9 C 2,9 km/h (1 Bft)
26/03/2012 10:20 11,8 C 71 % 1027,1 hPa 0,0 mm 3,6 km/h (1 Bft) E-NE 67 2 min 0 W/m 6,7 C 11,8 C 7,2 km/h (2 Bft)
26/03/2012 10:30 12,6 C 70 % 1027,1 hPa 0,0 mm 0,4 km/h (0 Bft) E-NE 67 2 min 0 W/m 7,3 C 12,6 C 0,4 km/h (0 Bft)
26/03/2012 10:40 13,5 C 68 % 1027,1 hPa 0,0 mm 0,0 km/h (0 Bft) E-SE 112 2 min 0 W/m 7,7 C 13,5 C 0,0 km/h (0 Bft)
26/03/2012 10:50 14,3 C 64 % 1027,1 hPa 0,0 mm 2,9 km/h (1 Bft) N-NE 22 2 min 0 W/m 7,6 C 14,3 C 6,5 km/h (2 Bft)
26/03/2012 11:00 15,1 C 63 % 1027,1 hPa 0,0 mm 2,9 km/h (1 Bft) NE 45 2 min 0 W/m 8,1 C 15,1 C 4,3 km/h (1 Bft)
26/03/2012 11:10 15,9 C 63 % 1027,0 hPa 0,0 mm 2,9 km/h (1 Bft) E-NE 67 2 min 0 W/m 8,9 C 15,9 C 6,1 km/h (2 Bft)
26/03/2012 11:20 16,8 C 59 % 1027,1 hPa 0,0 mm 0,7 km/h (0 Bft) NE 45 2 min 0 W/m 8,7 C 16,8 C 4,0 km/h (1 Bft)
26/03/2012 11:30 17,6 C 57 % 1027,1 hPa 0,0 mm 0,7 km/h (0 Bft) E-NE 67 2 min 0 W/m 9,0 C 17,6 C 4,3 km/h (1 Bft)
26/03/2012 11:40 18,3 C 55 % 1027,1 hPa 0,0 mm 1,8 km/h (1 Bft) E-NE 67 2 min 0 W/m 9,1 C 18,3 C 4,0 km/h (1 Bft)
26/03/2012 11:50 19,0 C 53 % 1027,2 hPa 0,0 mm 1,4 km/h (1 Bft) E-NE 67 2 min 0 W/m 9,2 C 19,0 C 3,6 km/h (1 Bft)
26/03/2012 12:00 19,8 C 51 % 1027,3 hPa 0,0 mm 2,5 km/h (1 Bft) NE 45 2 min 0 W/m 9,4 C 19,8 C 2,9 km/h (1 Bft)
26/03/2012 12:10 20,2 C 48 % 1027,3 hPa 0,0 mm 0,4 km/h (0 Bft) NE 45 2 min 0 W/m 8,8 C 20,2 C 3,2 km/h (1 Bft)
26/03/2012 12:20 20,8 C 47 % 1027,2 hPa 0,0 mm 3,2 km/h (1 Bft) NE 45 2 min 0 W/m 9,1 C 20,8 C 4,3 km/h (1 Bft)
26/03/2012 12:30 21,1 C 47 % 1027,2 hPa 0,0 mm 1,1 km/h (1 Bft) E 90 2 min 0 W/m 9,3 C 21,1 C 4,0 km/h (1 Bft)
26/03/2012 12:40 21,4 C 47 % 1027,3 hPa 0,0 mm 5,8 km/h (2 Bft) NE 45 2 min 0 W/m 9,6 C 21,4 C 7,6 km/h (2 Bft)
26/03/2012 12:50 21,7 C 46 % 1027,3 hPa 0,0 mm 3,2 km/h (1 Bft) N-NE 22 2 min 0 W/m 9,6 C 21,7 C 7,6 km/h (2 Bft)
26/03/2012 13:00 22,1 C 45 % 1027,3 hPa 0,0 mm 4,0 km/h (1 Bft) NE 45 2 min 0 W/m 9,6 C 22,1 C 8,6 km/h (2 Bft)
26/03/2012 13:10 22,2 C 44 % 1027,2 hPa 0,0 mm 5,4 km/h (2 Bft) NE 45 2 min 0 W/m 9,4 C 22,2 C 7,6 km/h (2 Bft)
26/03/2012 13:20 22,5 C 45 % 1027,1 hPa 0,0 mm 2,9 km/h (1 Bft) E-NE 67 2 min 0 W/m 10,0 C 22,5 C 6,8 km/h (2 Bft)
26/03/2012 13:30 22,8 C 43 % 1027,2 hPa 0,0 mm 1,1 km/h (1 Bft) E-NE 67 2 min 0 W/m 9,6 C 22,8 C 4,0 km/h (1 Bft)
26/03/2012 13:40 22,9 C 41 % 1027,1 hPa 0,0 mm 5,8 km/h (2 Bft) N-NE 22 2 min 0 W/m 8,9 C 22,9 C 9,7 km/h (2 Bft)
_ Min-Heure 08:10 13:40 06:10 - 10:40 - - - - 07:50 08:10 10:40
Minimum _ 3,3 C 41 % 1025,5 hPa - 0,0 km/h (0 Bft) - - - - 0,4 C 3,3 C 0,0 km/h (0 Bft)
_ Max-Heure 13:40 09:00 13:00 13:40 13:40 - - 13:40 13:40 13:20 13:40 13:40
Maximum _ 22,9 C 84 % 1027,3 hPa 0,0 mm 5,8 km/h
N-NE (2 Bft)
- - 2 min 0 W/m 10,0 C 22,9 C 9,7 km/h
N-NE (2 Bft)
Moyenne _ 9,8 C 69 % 1026,3 hPa #0,0 mm 0,7 km/h (0 Bft) NE - #1:10 h 0 W/m 4,1 C 9,8 C 1,7 km/h (1 Bft)
Saint Bonnet de Bellac- Haute Vienne - France